Weather History for Prairie Du Chien, WI

Change the Weather History Date:

Saturday, March 22, 2014

  Actual Average Record
Temperature  
Mean Temperature 28 °F -  
Max Temperature 35 °F 48 °F 75 °F (2012)
Min Temperature 21 °F 26 °F 8 °F (2013)
Degree Days  
Heating Degree Days 36    
Moisture  
Dew Point 15 °F    
Average Humidity 59    
Maximum Humidity 74    
Minimum Humidity 40    
Precipitation  
Precipitation 0.00 in - - ()
Sea Level Pressure  
Sea Level Pressure 30.25 in    
Wind  
Wind Speed 13 mph (NW)    
Max Wind Speed 18 mph    
Max Gust Speed 26 mph    
Visibility 10 miles    
Events      
Averages and records for this station are not official NWS values.
T = Trace of Precipitation, MM = Missing Value Source: NWS Daily Summary

Daily Weather History Graph

Daily Weather History Graph

Search for Another Location

Airport:

Trip Planner

Search our weather history database for the weather conditions in past years. The results will help you decide how hot, cold, wet, or windy it might be!

Date:

Astronomy

Mar. 22, 2014 Rise Set
Actual Time 7:04 AM CDT 7:19 PM CDT
Civil Twilight 6:35 AM CDT 7:47 PM CDT
Nautical Twilight 6:02 AM CDT 8:20 PM CDT
Astronomical Twilight 5:28 AM CDT 8:55 PM CDT
Moon 12:45 AM CDT (3/22) 10:40 AM CDT (3/22)
Length of Visible Light 13h 11m
Length of Day
12h 15m
Waning Gibbous, 65% of the Moon is Illuminated
Mar 22
Waning Gibbous
Mar 23
Last Quarter
Mar 30
New
Apr 7
First Quarter
Apr 15
Full

Hourly Weather History & Observations

Time (CDT) Temp. Windchill Dew Point Humidity Pressure Visibility Wind Dir Wind Speed Gust Speed Precip Events Conditions
12:15 AM 36.1 °F 27.3 °F 27.1 °F 70% 30.00 in 10.0 mi WNW 13.8 mph 23.0 mph N/A   Overcast
12:35 AM 36.0 °F 26.0 °F 27.1 °F 70% 30.01 in 10.0 mi WNW 17.3 mph 23.0 mph N/A   Overcast
12:55 AM 35.8 °F 26.5 °F 26.8 °F 70% 30.01 in 10.0 mi WNW 15.0 mph 21.9 mph N/A   Overcast
1:15 AM 35.8 °F 28.3 °F 26.4 °F 69% 30.01 in 10.0 mi NW 10.4 mph 19.6 mph N/A   Overcast
1:35 AM 35.8 °F 27.3 °F 26.2 °F 68% 30.03 in 10.0 mi NW 12.7 mph 18.4 mph N/A   Overcast
1:55 AM 35.6 °F 28.0 °F 26.2 °F 69% 30.04 in 10.0 mi NW 10.4 mph 16.1 mph N/A   Overcast
2:15 AM 35.6 °F 28.0 °F 26.2 °F 69% 30.05 in 10.0 mi NW 10.4 mph 18.4 mph N/A   Overcast
2:35 AM 35.2 °F 26.2 °F 25.9 °F 69% 30.05 in 10.0 mi NW 13.8 mph 18.4 mph N/A   Overcast
2:55 AM 34.7 °F 26.4 °F 26.2 °F 71% 30.06 in 10.0 mi NW 11.5 mph 19.6 mph N/A   Overcast
3:15 AM 34.5 °F 25.3 °F 25.7 °F 70% 30.06 in 10.0 mi NW 13.8 mph 19.6 mph N/A   Overcast
3:35 AM 34.3 °F 25.5 °F 25.5 °F 70% 30.07 in 10.0 mi NW 12.7 mph 18.4 mph N/A   Overcast
3:55 AM 34.0 °F 24.2 °F 25.3 °F 71% 30.07 in 10.0 mi WNW 15.0 mph - N/A   Overcast
4:15 AM 33.1 °F 24.4 °F 25.3 °F 73% 30.09 in 10.0 mi WNW 11.5 mph 20.7 mph N/A   Overcast
4:35 AM 32.2 °F 23.2 °F 24.6 °F 74% 30.10 in 10.0 mi NW 11.5 mph - N/A   Overcast
4:55 AM 32.0 °F 21.2 °F 24.1 °F 73% 30.10 in 10.0 mi NW 16.1 mph - N/A   Overcast
5:15 AM 31.5 °F 21.4 °F 23.2 °F 71% 30.12 in 10.0 mi NW 13.8 mph 20.7 mph N/A   Overcast
5:35 AM 31.1 °F 21.9 °F 22.8 °F 71% 30.14 in 10.0 mi WNW 11.5 mph 20.7 mph N/A   Overcast
5:55 AM 30.2 °F 20.2 °F 22.1 °F 72% 30.15 in 10.0 mi WNW 12.7 mph 24.2 mph N/A   Overcast
6:15 AM 29.8 °F 19.3 °F 21.9 °F 72% 30.16 in 10.0 mi WNW 13.8 mph - N/A   Overcast
6:35 AM 29.5 °F 20.4 °F 21.7 °F 73% 30.16 in 10.0 mi NW 10.4 mph 16.1 mph N/A   Overcast
6:55 AM 29.3 °F 18.2 °F 21.0 °F 71% 30.17 in 10.0 mi WNW 15.0 mph - N/A   Overcast
7:15 AM 28.2 °F 15.5 °F 20.7 °F 73% 30.19 in 10.0 mi West 18.4 mph - N/A   Overcast
7:35 AM 27.5 °F 17.4 °F 19.4 °F 72% 30.21 in 10.0 mi NW 11.5 mph 18.4 mph N/A   Overcast
7:55 AM 27.1 °F 16.9 °F 18.5 °F 70% 30.23 in 10.0 mi WNW 11.5 mph - N/A   Overcast
8:15 AM 26.4 °F 15.0 °F 17.4 °F 69% 30.24 in 10.0 mi NW 13.8 mph 19.6 mph N/A   Overcast
8:35 AM 25.5 °F 14.9 °F 16.9 °F 70% 30.24 in 10.0 mi WNW 11.5 mph 19.6 mph N/A   Overcast
8:55 AM 24.8 °F 13.4 °F 15.6 °F 68% 30.25 in 10.0 mi NW 12.7 mph 20.7 mph N/A   Overcast
9:15 AM 24.8 °F 13.4 °F 15.8 °F 69% 30.26 in 10.0 mi WNW 12.7 mph 18.4 mph N/A   Overcast
9:35 AM 25.0 °F 12.2 °F 15.6 °F 68% 30.27 in 10.0 mi WNW 16.1 mph - N/A   Overcast
9:55 AM 25.2 °F 13.3 °F 14.7 °F 65% 30.27 in 10.0 mi WNW 13.8 mph 18.4 mph N/A   Mostly Cloudy
10:15 AM 25.7 °F 13.5 °F 13.6 °F 60% 30.29 in 10.0 mi NNW 15.0 mph 19.6 mph N/A   Scattered Clouds
10:35 AM 26.2 °F 14.7 °F 12.9 °F 57% 30.29 in 10.0 mi NW 13.8 mph 21.9 mph N/A   Clear
10:55 AM 26.6 °F 16.2 °F 11.8 °F 54% 30.30 in 10.0 mi NNW 11.5 mph 18.4 mph N/A   Clear
11:15 AM 27.5 °F 15.9 °F 12.0 °F 52% 30.30 in 10.0 mi North 15.0 mph 19.6 mph N/A   Clear
11:35 AM 28.0 °F 17.0 °F 13.6 °F 55% 30.31 in 10.0 mi NNW 13.8 mph 18.4 mph N/A   Clear
11:55 AM 28.0 °F 16.1 °F 12.0 °F 51% 30.30 in 10.0 mi NW 16.1 mph 19.6 mph N/A   Clear
12:20 PM 28.4 °F 19.1 °F 11.3 °F 49% 30.30 in 10.0 mi North 10.4 mph 20.7 mph N/A   Clear
12:55 PM 29.8 °F 20.9 °F 11.7 °F 47% 30.31 in 10.0 mi NW 10.4 mph - N/A   Clear
1:15 PM 29.7 °F 20.1 °F 12.2 °F 48% 30.31 in 10.0 mi WNW 11.5 mph - N/A   Clear
1:35 PM 29.7 °F 19.6 °F 10.9 °F 46% 30.31 in 10.0 mi NW 12.7 mph 19.6 mph N/A   Clear
1:55 PM 30.7 °F 20.4 °F 11.5 °F 45% 30.30 in 10.0 mi NW 13.8 mph 18.4 mph N/A   Clear
2:15 PM 30.2 °F 19.3 °F 12.6 °F 48% 30.30 in 10.0 mi West 15.0 mph 18.4 mph N/A   Clear
2:35 PM 30.2 °F 21.9 °F 11.8 °F 47% 30.30 in 10.0 mi West 9.2 mph 18.4 mph N/A   Clear
2:55 PM 31.1 °F 20.9 °F 10.6 °F 42% 30.30 in 10.0 mi NW 13.8 mph - N/A   Clear
3:15 PM 30.2 °F 20.8 °F 11.1 °F 45% 30.30 in 10.0 mi NW 11.5 mph 23.0 mph N/A   Clear
3:35 PM 30.0 °F 20.5 °F 8.4 °F 40% 30.31 in 10.0 mi NW 11.5 mph 20.7 mph N/A   Clear
3:55 PM 30.0 °F 20.0 °F 10.2 °F 44% 30.31 in 10.0 mi NW 12.7 mph 23.0 mph N/A   Clear
4:15 PM 30.7 °F 20.9 °F 11.8 °F 46% 30.31 in 10.0 mi West 12.7 mph - N/A   Clear
4:35 PM 29.8 °F 19.8 °F 8.2 °F 40% 30.32 in 10.0 mi NW 12.7 mph 17.3 mph N/A   Clear
4:55 PM 29.7 °F 19.1 °F 9.7 °F 43% 30.33 in 10.0 mi NW 13.8 mph 21.9 mph N/A   Clear
5:15 PM 28.8 °F 16.6 °F 10.0 °F 46% 30.33 in 10.0 mi WNW 17.3 mph 26.5 mph N/A   Clear
5:35 PM 28.4 °F 16.6 °F 10.2 °F 47% 30.34 in 10.0 mi WNW 16.1 mph 25.3 mph N/A   Clear
5:55 PM 27.3 °F 14.4 °F 10.2 °F 49% 30.35 in 10.0 mi WNW 18.4 mph 24.2 mph N/A   Clear
6:20 PM 26.4 °F 15.0 °F 9.5 °F 49% 30.36 in 10.0 mi NW 13.8 mph - N/A   Clear
6:35 PM 25.7 °F 14.0 °F 8.6 °F 48% 30.36 in 10.0 mi WNW 13.8 mph 21.9 mph N/A   Clear
6:55 PM 25.3 °F 13.6 °F 9.0 °F 50% 30.36 in 10.0 mi WNW 13.8 mph 20.7 mph N/A   Clear
7:15 PM 24.8 °F 12.9 °F 8.4 °F 50% 30.37 in 10.0 mi NW 13.8 mph 19.6 mph N/A   Clear
7:35 PM 24.3 °F 11.7 °F 7.7 °F 49% 30.37 in 10.0 mi NW 15.0 mph 20.7 mph N/A   Clear
7:55 PM 23.9 °F 11.7 °F 7.3 °F 49% 30.37 in 10.0 mi NW 13.8 mph 19.6 mph N/A   Clear
8:15 PM 23.7 °F 12.1 °F 7.2 °F 49% 30.38 in 10.0 mi NW 12.7 mph 23.0 mph N/A   Clear
8:35 PM 23.4 °F 10.6 °F 7.5 °F 51% 30.39 in 10.0 mi NW 15.0 mph 19.6 mph N/A   Clear
8:55 PM 23.0 °F 12.4 °F 8.8 °F 55% 30.39 in 10.0 mi NW 10.4 mph 17.3 mph N/A   Clear
9:15 PM 22.8 °F 10.9 °F 8.1 °F 53% 30.39 in 10.0 mi NW 12.7 mph 19.6 mph N/A   Clear
9:35 PM 22.6 °F 9.6 °F 7.7 °F 53% 30.40 in 10.0 mi NW 15.0 mph 19.6 mph N/A   Clear
9:55 PM 22.1 °F 12.0 °F 8.1 °F 55% 30.40 in 10.0 mi NW 9.2 mph - N/A   Clear
10:15 PM 22.1 °F 11.3 °F 8.1 °F 55% 30.42 in 10.0 mi NW 10.4 mph - N/A   Clear
10:35 PM 21.9 °F 8.7 °F 7.9 °F 55% 30.42 in 10.0 mi NW 15.0 mph - N/A   Clear
10:55 PM 21.7 °F 11.5 °F 7.7 °F 55% 30.43 in 10.0 mi NW 9.2 mph - N/A   Clear
11:15 PM 21.7 °F 11.5 °F 7.9 °F 55% 30.44 in 10.0 mi NW 9.2 mph - N/A   Clear
11:35 PM 21.2 °F 11.7 °F 7.7 °F 56% 30.44 in 10.0 mi NW 8.1 mph - N/A   Clear
11:55 PM 21.2 °F 12.6 °F 7.9 °F 57% 30.45 in 10.0 mi NW 6.9 mph - N/A   Scattered Clouds